EW3919 Weather Reports


time (UTC)temp
C
wind
direction
speed
KPH
gust
KPH
rain 1hr
cm
rain 24hr
cm
rain mn
cm
humidity
%
barometer
mb
20260507135516 20 0.0 0.0 0.23 1.60 1.57 90 1011.0
20260507135036 20 0.0 0.0 0.28 1.60 1.57 90 1010.9
20260507134516 20 0.0 0.0 0.25 1.57 1.55 90 1011.0
20260507134056 20 0.0 0.0 0.25 1.57 1.55 90 1011.3
20260507133536 20 0.0 0.0 0.23 1.55 1.52 90 1011.5
20260507133016 20 0.0 0.0 0.25 1.55 1.52 90 1011.4
20260507132516 20 0.0 0.0 0.25 1.55 1.52 90 1011.1
20260507132036 20 0.0 0.0 0.28 1.55 1.52 90 1011.1
20260507131516 20 0.0 0.0 0.25 1.50 1.47 90 1010.9
20260507131035 20 0.0 0.0 0.25 1.47 1.45 90 1011.1
20260507130516 20 0.0 0.0 0.23 1.42 1.40 90 1011.4
20260507130036 20 0.0 0.0 0.20 1.40 1.37 90 1011.6
20260507125516 20 0.0 0.0 0.20 1.37 1.35 90 1011.7
20260507125036 20 0.0 3.2 0.18 1.32 1.30 90 1011.5
20260507124516 20 0.0 8.0 0.18 1.32 1.30 90 1011.2
20260507124016 20 0.0 1.6 0.18 1.32 1.30 90 1011.2
20260507123516 20 0.0 0.0 0.18 1.32 1.30 90 1011.2
20260507123036 20 0.0 0.0 0.18 1.30 1.27 90 1011.2
20260507122515 20 0.0 0.0 0.18 1.30 1.27 90 1011.3
20260507122035 20 203 1.6 14.5 0.18 1.27 1.24 90 1011.5
20260507121515 20 0.0 1.6 0.15 1.24 1.22 90 1011.4
20260507121016 20 0.0 6.4 0.13 1.22 1.19 90 1011.5
20260507120516 20 0.0 0.0 0.10 1.19 1.17 90 1011.3
20260507120015 20 203 1.6 17.7 0.10 1.19 1.17 90 1010.9
20260507115516 20 0.0 1.6 0.08 1.17 1.14 90 1011.0
20260507115016 20 0.0 0.0 0.05 1.14 1.12 90 1010.9
20260507114515 20 0.0 8.0 0.05 1.14 1.12 90 1010.9
20260507114015 20 203 3.2 22.5 0.10 1.14 1.12 90 1010.8
20260507113516 20 0.0 17.7 0.10 1.14 1.12 90 1010.9
20260507113016 20 225 4.8 27.4 0.08 1.12 1.09 90 1010.8
20260507112538 20 225 3.2 20.9 0.10 1.12 1.09 90 1011.2
20260507112018 20 225 3.2 17.7 0.10 1.09 1.07 90 1011.0
20260507111518 20 203 1.6 16.1 0.10 1.09 1.07 90 1011.2
20260507111017 19 225 3.2 19.3 0.13 1.09 1.07 90 1010.9
20260507110518 19 0.0 9.7 0.15 1.09 1.07 90 1010.0
20260507110018 19 225 3.2 27.4 0.20 1.09 1.07 90 1009.9
20260507105517 19 225 4.8 16.1 0.25 1.09 1.07 90 1009.5
20260507105017 19 203 3.2 16.1 0.25 1.09 1.07 90 1009.5
20260507104518 19 113 8.0 30.6 0.25 1.09 1.07 90 1008.7
20260507104017 19 135 4.8 25.7 0.20 1.04 1.04 90 1008.7
20260507103517 19 135 1.6 22.5 0.20 1.04 1.02 90 1010.1
20260507103018 19 0.0 0.0 0.20 1.04 1.02 90 1011.1
20260507102519 19 0.0 0.0 0.18 1.02 0.99 90 1011.2
20260507102017 19 0.0 0.0 0.15 0.99 0.97 90 1011.3
20260507101518 19 0.0 0.0 0.15 0.99 0.97 90 1011.3
20260507101017 19 0.0 0.0 0.13 0.97 0.94 90 1011.2
20260507100538 19 0.0 0.0 0.10 0.94 0.91 90 1012.4
20260507100017 19 0.0 0.0 0.05 0.89 0.86 90 1012.8
20260507095518 19 0.0 0.0 0.00 0.84 0.81 90 1012.6
20260507095018 19 0.0 0.0 0.00 0.84 0.81 90 1012.2
20260507094517 19 0.0 0.0 0.00 0.84 0.81 90 1012.0
20260507094017 19 0.0 0.0 0.00 0.84 0.81 90 1012.2
20260507093517 19 0.0 0.0 0.00 0.84 0.81 90 1012.3
20260507093037 19 0.0 0.0 0.00 0.84 0.81 90 1012.5
20260507092517 19 0.0 0.0 0.00 0.84 0.81 90 1012.7
20260507092017 19 0.0 0.0 0.00 0.84 0.81 90 1012.8
20260507091557 19 0.0 0.0 0.00 0.84 0.81 90 1012.8
20260507091017 19 0.0 0.0 0.00 0.84 0.81 90 1012.7
20260507090517 19 0.0 0.0 0.00 0.84 0.81 90 1012.5
20260507090017 19 0.0 0.0 0.00 0.84 0.81 90 1012.6
20260507085517 19 0.0 0.0 0.00 0.84 0.81 90 1012.3
20260507085017 19 0.0 0.0 0.03 0.84 0.81 90 1012.3
20260507084518 19 0.0 0.0 0.03 0.84 0.81 90 1012.3
20260507084118 20 0.0 0.0 0.08 0.84 0.81 90 1012.2
20260507083518 20 0.0 0.0 0.13 0.84 0.81 90 1012.1
20260507083037 20 0.0 0.0 0.15 0.84 0.81 90 1012.1
20260507082517 20 0.0 0.0 0.15 0.84 0.81 90 1012.1
20260507082017 20 0.0 0.0 0.15 0.84 0.81 90 1012.3
20260507081517 20 0.0 0.0 0.18 0.84 0.81 90 1012.2
20260507081017 20 0.0 0.0 0.20 0.84 0.81 90 1012.1
20260507080517 20 0.0 0.0 0.23 0.84 0.81 90 1011.9
20260507080038 20 0.0 0.0 0.23 0.84 0.81 90 1011.6
20260507075517 20 0.0 0.0 0.28 0.84 0.81 90 1011.2
20260507075017 20 0.0 0.0 0.28 0.81 0.79 90 1011.8
20260507074517 20 0.0 0.0 0.30 0.81 0.79 89 1011.2
20260507074017 20 0.0 0.0 0.30 0.76 0.74 90 1012.3
20260507073517 20 225 4.8 19.3 0.28 0.71 0.69 89 1012.8
20260507073017 20 203 3.2 16.1 0.25 0.69 0.66 89 1012.4
20260507072517 20 203 3.2 11.3 0.28 0.69 0.66 89 1012.1
20260507072017 20 225 4.8 12.9 0.30 0.69 0.66 89 1012.1
20260507071517 20 113 1.6 9.7 0.28 0.66 0.64 89 1012.7
20260507071017 20 203 8.0 17.7 0.28 0.64 0.61 89 1013.2
20260507070517 20 225 3.2 14.5 0.28 0.61 0.58 89 1012.9
20260507070037 20 225 1.6 11.3 0.30 0.61 0.58 89 1012.7
20260507065517 20 0.0 0.0 0.25 0.56 0.53 89 1012.7
20260507065017 20 0.0 0.0 0.25 0.53 0.51 89 1012.4
20260507064517 20 0.0 0.0 0.25 0.51 0.48 89 1012.9
20260507064037 20 0.0 0.0 0.25 0.46 0.43 89 1013.1
20260507063517 20 0.0 0.0 0.25 0.43 0.41 89 1013.2
20260507063017 20 0.0 0.0 0.25 0.43 0.41 89 1013.1
20260507062537 20 0.0 1.6 0.25 0.41 0.38 89 1013.1
20260507062017 20 0.0 0.0 0.25 0.38 0.36 89 1013.4
20260507061517 20 0.0 0.0 0.25 0.38 0.36 89 1013.5
20260507061016 20 0.0 3.2 0.25 0.36 0.33 89 1013.6
20260507060517 20 0.0 1.6 0.25 0.33 0.30 89 1013.7
20260507060017 20 0.0 0.0 0.23 0.30 0.28 88 1013.8
20260507055517 20 0.0 4.8 0.23 0.30 0.28 88 1013.5
20260507055037 20 0.0 8.0 0.20 0.28 0.25 88 1013.6
20260507054517 21 0.0 12.9 0.20 0.25 0.23 88 1013.5
20260507054017 21 0.0 11.3 0.15 0.20 0.18 88 1013.5
20260507053517 21 225 1.6 11.3 0.13 0.18 0.15 88 1013.5
20260507053017 21 0.0 4.8 0.15 0.18 0.15 88 1013.7
20260507052517 21 203 1.6 9.7 0.13 0.15 0.13 88 1013.9
20260507052057 21 0.0 4.8 0.10 0.13 0.10 88 1013.7
20260507051517 21 0.0 0.0 0.10 0.13 0.10 87 1013.3
20260507051017 21 0.0 8.0 0.08 0.10 0.08 87 1013.3
20260507050517 21 0.0 0.0 0.05 0.08 0.05 87 1013.3
20260507050017 21 0.0 4.8 0.05 0.08 0.05 87 1012.9
20260507045517 21 0.0 0.0 0.05 0.08 0.05 87 1012.7
20260507045017 21 0.0 8.0 0.05 0.08 0.05 86 1012.9
20260507044537 21 0.0 0.0 0.05 0.05 0.03 86 1012.9
20260507044017 21 0.0 0.0 0.05 0.05 0.03 85 1013.2
20260507043517 21 0.0 0.0 0.05 0.05 0.03 84 1013.5
20260507043017 22 0.0 0.0 0.03 0.03 0.00 84 1013.3
20260507042516 22 0.0 0.0 0.03 0.03 0.00 83 1013.2
20260507042017 22 0.0 0.0 0.03 0.03 0.00 82 1012.8
20260507041517 22 0.0 0.0 0.03 0.03 0.00 82 1012.8
20260507041016 22 0.0 0.0 0.03 0.03 0.00 82 1013.0
20260507040536 22 0.0 0.0 0.03 0.03 0.00 81 1013.2
20260507040016 22 0.0 0.0 0.03 0.03 0.03 80 1013.7
20260507035516 22 0.0 11.3 0.03 0.03 0.03 80 1013.6
20260507035036 22 203 3.2 20.9 0.03 0.03 0.03 79 1013.5
20260507034516 23 0.0 0.0 0.00 0.00 0.00 77 1013.8
20260507034037 23 0.0 0.0 0.00 0.00 0.00 76 1014.1
20260507033516 23 0.0 8.0 0.00 0.00 0.00 74 1014.2
20260507033016 23 0.0 0.0 0.00 0.00 0.00 74 1014.4
20260507032516 24 0.0 0.0 0.00 0.00 0.00 72 1014.3
20260507032016 24 0.0 0.0 0.00 0.00 0.00 71 1014.2
20260507031516 25 0.0 0.0 0.00 0.00 0.00 70 1014.0
20260507031016 25 0.0 0.0 0.00 0.00 0.00 68 1013.6
20260507030516 25 0.0 0.0 0.00 0.00 0.00 69 1013.7
20260507030016 25 0.0 0.0 0.00 0.00 0.00 67 1013.7
20260507025516 25 0.0 0.0 0.00 0.00 0.00 67 1013.4
20260507025016 25 0.0 0.0 0.00 0.00 0.00 67 1013.3
20260507024536 25 0.0 0.0 0.00 0.00 0.00 66 1013.4
20260507024016 25 0.0 0.0 0.00 0.00 0.00 66 1013.5
20260507023516 25 0.0 0.0 0.00 0.00 0.00 66 1013.6
20260507023016 25 0.0 0.0 0.00 0.00 0.00 66 1013.6
20260507022536 25 0.0 0.0 0.00 0.00 0.00 66 1013.5
20260507022016 25 0.0 0.0 0.00 0.00 0.00 66 1013.5
20260507021516 25 0.0 0.0 0.00 0.00 0.00 66 1013.3
20260507021016 25 0.0 0.0 0.00 0.00 0.00 66 1012.9
20260507020515 25 0.0 0.0 0.00 0.00 0.00 65 1012.8
20260507020016 26 0.0 3.2 0.00 0.00 0.00 65 1012.9
20260507015516 26 0.0 0.0 0.00 0.00 0.00 64 1013.1
20260507015016 26 0.0 0.0 0.00 0.00 0.00 64 1013.1
20260507014515 26 0.0 4.8 0.00 0.00 0.00 64 1013.1
20260507014016 26 0.0 0.0 0.00 0.00 0.00 64 1012.9
20260507013516 26 0.0 8.0 0.00 0.00 0.00 64 1013.0
20260507013036 26 0.0 0.0 0.00 0.00 0.00 63 1012.9
20260507012516 26 0.0 6.4 0.00 0.00 0.00 63 1013.1
20260507012016 26 0.0 0.0 0.00 0.00 0.00 63 1013.1
20260507011536 26 0.0 9.7 0.00 0.00 0.00 63 1013.1
20260507011016 26 0.0 6.4 0.00 0.00 0.00 63 1013.3
20260507010516 26 0.0 0.0 0.00 0.00 0.00 63 1013.4
20260507010016 26 0.0 1.6 0.00 0.00 0.00 62 1013.3
20260507005516 26 0.0 1.6 0.00 0.00 0.00 62 1013.3
20260507005016 26 203 1.6 11.3 0.00 0.00 0.00 62 1013.1
20260507004516 26 0.0 4.8 0.00 0.00 0.00 62 1012.8
20260507004016 26 0.0 6.4 0.00 0.00 0.00 63 1013.0
20260507003516 27 0.0 0.0 0.00 0.00 0.00 62 1013.0
20260507003016 27 0.0 0.0 0.00 0.00 0.00 62 1013.1
20260507002516 27 0.0 0.0 0.00 0.00 0.00 62 1012.7
20260507002015 27 0.0 0.0 0.00 0.00 0.00 62 1012.7
20260507001515 27 203 1.6 12.9 0.00 0.00 0.00 62 1012.8
20260507001016 27 0.0 0.0 0.00 0.00 0.00 62 1013.2
20260507000538 27 0.0 6.4 0.00 0.00 0.00 62 1012.9
20260507000018 27 0.0 6.4 0.00 0.00 0.00 61 1012.3
20260506235518 27 0.0 8.0 0.00 0.00 0.00 61 1012.4
20260506235017 27 203 1.6 16.1 0.00 0.00 0.00 60 1012.4
20260506234518 27 0.0 6.4 0.00 0.00 0.00 61 1012.5
20260506234017 27 0.0 12.9 0.00 0.00 0.00 60 1012.0
20260506233517 27 225 1.6 9.7 0.00 0.00 0.00 60 1012.3
20260506233017 28 0.0 0.0 0.00 0.00 0.00 61 1012.5
20260506232538 28 0.0 0.0 0.00 0.00 0.00 61 1012.7
20260506232017 28 0.0 0.0 0.00 0.00 0.00 61 1013.0
20260506231517 28 0.0 0.0 0.00 0.00 0.00 60 1013.1
20260506231017 28 0.0 8.0 0.00 0.00 0.00 60 1013.1
20260506230517 28 225 1.6 16.1 0.00 0.00 0.00 59 1013.3
20260506230017 28 0.0 17.7 0.00 0.00 0.00 59 1013.2
20260506225538 28 225 3.2 20.9 0.00 0.00 0.00 58 1012.8
20260506225017 28 203 1.6 12.9 0.00 0.00 0.00 57 1012.7
20260506224537 28 225 1.6 14.5 0.00 0.00 0.00 57 1012.8
20260506224018 28 0.0 1.6 0.00 0.00 0.00 57 1012.6
20260506223517 28 0.0 0.0 0.00 0.00 0.00 56 1012.6
20260506223018 29 0.0 0.0 0.00 0.00 0.00 57 1012.8
20260506222517 29 0.0 0.0 0.00 0.00 0.00 57 1013.1
20260506222017 29 0.0 8.0 0.00 0.00 0.00 56 1012.9
20260506221517 29 203 3.2 14.5 0.00 0.00 0.00 56 1012.8
20260506221018 29 225 3.2 16.1 0.00 0.00 0.00 56 1012.8
20260506220517 29 0.0 0.0 0.00 0.00 0.00 56 1012.8
20260506220017 29 0.0 0.0 0.00 0.00 0.00 56 1012.8
20260506215517 29 0.0 0.0 0.00 0.00 0.00 56 1012.7
20260506215037 30 225 1.6 12.9 0.00 0.00 0.00 56 1012.7
20260506214517 30 203 1.6 19.3 0.00 0.00 0.00 56 1012.6
20260506214017 30 0.0 6.4 0.00 0.00 0.00 55 1012.7
20260506213517 30 0.0 6.4 0.00 0.00 0.00 55 1012.7
20260506213017 30 203 1.6 25.7 0.00 0.00 0.00 56 1012.8
20260506212517 30 203 1.6 12.9 0.00 0.00 0.00 55 1012.9
20260506212017 30 0.0 4.8 0.00 0.00 0.00 55 1012.9
20260506211517 30 0.0 6.4 0.00 0.00 0.00 55 1013.3
20260506211017 30 248 1.6 14.5 0.00 0.00 0.00 55 1013.2
20260506210537 30 225 1.6 16.1 0.00 0.00 0.00 54 1013.2
20260506210017 30 225 3.2 19.3 0.00 0.00 0.00 52 1013.3
20260506205517 30 203 1.6 24.1 0.00 0.00 0.00 53 1013.3
20260506205017 30 225 1.6 12.9 0.00 0.00 0.00 53 1013.5
20260506204517 30 0.0 11.3 0.00 0.00 0.00 53 1013.4
20260506204017 30 203 1.6 12.9 0.00 0.00 0.00 52 1013.4
20260506203517 30 0.0 16.1 0.00 0.00 0.00 51 1013.4
20260506203017 30 225 1.6 9.7 0.00 0.00 0.00 49 1013.6
20260506202517 30 0.0 3.2 0.00 0.00 0.00 49 1013.7
20260506202017 30 203 3.2 17.7 0.00 0.00 0.00 52 1013.8
20260506201517 30 180 4.8 14.5 0.00 0.00 0.00 50 1014.0
20260506201017 30 225 1.6 16.1 0.00 0.00 0.00 47 1014.2
20260506200517 30 225 1.6 9.7 0.00 0.00 0.00 49 1014.1
20260506200017 30 0.0 6.4 0.00 0.00 0.00 48 1014.2
20260506195517 30 225 1.6 8.0 0.00 0.00 0.00 48 1014.3
20260506195037 30 0.0 9.7 0.00 0.00 0.00 48 1014.3
20260506194517 30 203 1.6 14.5 0.00 0.00 0.00 49 1014.6
20260506194017 30 203 1.6 11.3 0.00 0.00 0.00 47 1014.7
20260506193517 30 225 1.6 20.9 0.00 0.00 0.00 47 1014.7
20260506193017 30 0.0 11.3 0.00 0.00 0.00 46 1014.7
20260506192517 30 225 3.2 16.1 0.00 0.00 0.00 47 1014.7
20260506192017 30 225 3.2 19.3 0.00 0.00 0.00 47 1014.9
20260506191537 30 0.0 6.4 0.00 0.00 0.00 50 1015.0
20260506191017 30 203 1.6 16.1 0.00 0.00 0.00 50 1014.9
20260506190517 30 225 1.6 16.1 0.00 0.00 0.00 48 1014.9
20260506190018 30 0.0 9.7 0.00 0.00 0.00 49 1015.1
20260506185516 30 0.0 6.4 0.00 0.00 0.00 48 1015.2
20260506185017 29 225 1.6 17.7 0.00 0.00 0.00 48 1015.1
20260506184517 30 225 1.6 17.7 0.00 0.00 0.00 47 1015.1
20260506184017 29 0.0 6.4 0.00 0.00 0.00 50 1015.0
20260506183517 29 0.0 8.0 0.00 0.00 0.00 50 1015.0
20260506183017 29 0.0 0.0 0.00 0.00 0.00 48 1015.0
20260506182516 29 0.0 0.0 0.00 0.00 0.00 51 1015.2
20260506182017 29 0.0 11.3 0.00 0.00 0.00 48 1015.2
20260506181517 29 0.0 3.2 0.00 0.00 0.00 51 1015.1
20260506181016 28 0.0 8.0 0.00 0.00 0.00 53 1015.1
20260506180517 28 0.0 0.0 0.00 0.00 0.00 54 1015.1
20260506180017 28 0.0 0.0 0.00 0.00 0.00 52 1015.1
20260506175517 28 225 1.6 9.7 0.00 0.00 0.00 52 1015.2
20260506175017 28 0.0 11.3 0.00 0.00 0.00 54 1015.1
20260506174537 27 203 1.6 8.0 0.00 0.00 0.00 53 1015.2
20260506174016 27 203 1.6 12.9 0.00 0.00 0.00 58 1015.5
20260506173517 27 0.0 0.0 0.00 0.00 0.00 58 1015.6
20260506173017 27 203 1.6 12.9 0.00 0.00 0.00 60 1015.6
20260506172516 27 203 1.6 14.5 0.00 0.00 0.00 61 1015.7
20260506172037 27 0.0 16.1 0.00 0.00 0.00 60 1015.8
20260506171517 26 0.0 0.0 0.00 0.00 0.00 60 1015.9
20260506171017 26 0.0 6.4 0.00 0.00 0.00 62 1015.9
20260506170516 26 203 1.6 12.9 0.00 0.00 0.00 61 1016.2
20260506170017 26 203 3.2 16.1 0.00 0.00 0.00 67 1016.3
20260506165537 26 203 1.6 12.9 0.00 0.00 0.00 67 1016.3
20260506165016 25 0.0 12.9 0.00 0.00 0.00 67 1016.4
20260506164537 25 203 1.6 12.9 0.00 0.00 0.00 68 1016.5
20260506164016 25 0.0 11.3 0.00 0.00 0.00 68 1016.7
20260506163517 25 0.0 1.6 0.00 0.00 0.00 68 1016.8
20260506163016 25 0.0 0.0 0.00 0.00 0.00 69 1016.9
20260506162517 24 0.0 14.5 0.00 0.00 0.00 69 1017.0
20260506162016 24 225 1.6 9.7 0.00 0.00 0.00 68 1017.1
20260506161517 25 0.0 9.7 0.00 0.00 0.00 69 1017.1
20260506161017 25 0.0 1.6 0.00 0.00 0.00 69 1017.2
20260506160536 25 0.0 4.8 0.00 0.00 0.00 70 1017.1
20260506160017 24 225 1.6 20.9 0.00 0.00 0.00 68 1017.1
20260506155516 24 203 1.6 8.0 0.00 0.00 0.00 69 1017.1
20260506155017 24 0.0 0.0 0.00 0.00 0.00 71 1017.2
20260506154537 24 0.0 9.7 0.00 0.00 0.00 71 1017.2
20260506154016 23 158 1.6 16.1 0.00 0.00 0.00 72 1017.3
20260506153516 23 0.0 12.9 0.00 0.00 0.00 73 1017.2
20260506153017 23 0.0 0.0 0.00 0.00 0.00 76 1017.1
20260506152517 23 0.0 8.0 0.00 0.00 0.00 77 1017.2
20260506152016 22 0.0 8.0 0.00 0.00 0.00 75 1017.1
20260506151516 22 0.0 0.0 0.00 0.00 0.00 75 1017.2
20260506151017 22 0.0 6.4 0.00 0.00 0.00 75 1017.2
20260506150516 23 203 1.6 14.5 0.00 0.00 0.00 75 1017.2
20260506150016 23 0.0 8.0 0.00 0.00 0.00 75 1017.2
20260506145517 23 0.0 1.6 0.00 0.00 0.00 77 1017.1
20260506145016 22 0.0 4.8 0.00 0.00 0.00 79 1016.9
20260506144516 22 0.0 3.2 0.00 0.00 0.00 79 1016.8
20260506144016 21 0.0 3.2 0.00 0.00 0.00 79 1016.9
20260506143516 21 0.0 9.7 0.00 0.00 0.00 81 1016.8
20260506143016 21 0.0 4.8 0.00 0.00 0.00 81 1016.7
20260506142516 21 203 1.6 9.7 0.00 0.00 0.00 81 1016.8
20260506142236 20 0.0 6.4 0.00 0.00 0.00 81 1016.6